Weather History for K1P1 - October, 2012

Change the Weather History Date:

Monday, October 1, 2012

  Actual Average (KLCI) Record (KLCI)
Temperature  
Mean Temperature 56 °F -  
Max Temperature 62 °F 65 °F 82 °F (1986)
Min Temperature 49 °F 42 °F 32 °F (1991)
Degree Days  
Heating Degree Days 10    
Growing Degree Days 6 (Base 50)    
Moisture  
Dew Point 50 °F    
Average Humidity 84    
Maximum Humidity 97    
Minimum Humidity 64    
Precipitation  
Precipitation 0.01 in - - ()
Sea Level Pressure  
Sea Level Pressure 29.70 in    
Wind  
Wind Speed 2 mph (West)    
Max Wind Speed 12 mph    
Max Gust Speed 20 mph    
Visibility 10 miles    
Events Rain    
Averages and records for this station are not official NWS values.
T = Trace of Precipitation, MM = Missing Value Source: NWS Daily Summary

Daily Weather History Graph

Daily Weather History Graph

Search for Another Location

Airport or City:

Trip Planner

Search our weather history database for the weather conditions in past years. The results will help you decide how hot, cold, wet, or windy it might be!

Date:

Astronomy

Oct. 01, 2012 Rise Set
Actual Time 6:45 AM EDT 6:27 PM EDT
Civil Twilight 6:16 AM EDT 6:55 PM EDT
Nautical Twilight 5:43 AM EDT 7:29 PM EDT
Astronomical Twilight 5:09 AM EDT 8:02 PM EDT
Moon 6:57 PM EDT (10/1) 8:16 AM EDT (10/1)
Length of Visible Light 12h 39m
Length of Day
11h 42m
Full, 98% of the Moon is Illuminated
Oct 1
Full
Oct 8
Last Quarter
Oct 15
New
Oct 21
First Quarter
Oct 29
Full

Hourly Weather History & Observations

Time (EDT) Temp. Dew Point Humidity Pressure Visibility Wind Dir Wind Speed Gust Speed Precip Events Conditions
12:15 AM 51.3 °F 48.4 °F 90% 29.65 in 10.0 mi Calm Calm - N/A   Overcast
12:35 AM 51.4 °F 48.2 °F 89% 29.64 in 10.0 mi Calm Calm - N/A   Overcast
12:55 AM 52.5 °F 47.3 °F 82% 29.64 in 10.0 mi Calm Calm - N/A   Overcast
1:15 AM 51.3 °F 48.6 °F 90% 29.64 in 10.0 mi Calm Calm - N/A   Overcast
1:35 AM 51.3 °F 48.4 °F 90% 29.63 in 10.0 mi NE 3.5 mph - N/A   Overcast
1:55 AM 50.9 °F 48.9 °F 93% 29.63 in 10.0 mi Calm Calm - N/A Rain Light Rain
2:15 AM 50.9 °F 48.7 °F 92% 29.63 in 10.0 mi Calm Calm - N/A   Drizzle
2:35 AM 50.5 °F 49.1 °F 95% 29.62 in 10.0 mi Calm Calm - N/A   Drizzle
2:55 AM 50.9 °F 49.3 °F 94% 29.62 in 10.0 mi Calm Calm - N/A   Light Drizzle
3:15 AM 50.2 °F 49.1 °F 96% 29.61 in 10.0 mi Calm Calm - N/A Rain Light Rain
3:35 AM 50.2 °F 49.1 °F 96% 29.61 in 10.0 mi Calm Calm - N/A   Overcast
3:55 AM 50.0 °F 49.1 °F 97% 29.61 in 10.0 mi Calm Calm - N/A   Light Drizzle
4:15 AM 49.6 °F 48.9 °F 97% 29.61 in 10.0 mi Calm Calm - N/A   Light Drizzle
4:35 AM 50.0 °F 49.1 °F 97% 29.61 in 10.0 mi Calm Calm - N/A Rain Light Rain
4:55 AM 50.4 °F 49.3 °F 96% 29.61 in 10.0 mi Calm Calm - N/A   Light Drizzle
5:15 AM 50.2 °F 48.9 °F 95% 29.60 in 10.0 mi Calm Calm - N/A   Light Drizzle
5:35 AM 50.2 °F 49.1 °F 96% 29.61 in 10.0 mi Calm Calm - N/A Rain Rain
5:55 AM 51.8 °F 48.4 °F 88% 29.61 in 10.0 mi Calm Calm - N/A   Light Drizzle
6:15 AM 52.9 °F 47.5 °F 82% 29.61 in 10.0 mi Calm Calm - N/A   Light Drizzle
6:35 AM 52.5 °F 47.5 °F 83% 29.60 in 10.0 mi Calm Calm - N/A Rain Light Rain
6:55 AM 52.0 °F 48.0 °F 86% 29.60 in 10.0 mi NE 3.5 mph - N/A   Light Drizzle
7:15 AM 51.3 °F 48.4 °F 90% 29.61 in 10.0 mi East 3.5 mph - N/A   Light Drizzle
7:35 AM 51.8 °F 48.4 °F 88% 29.61 in 10.0 mi ESE 3.5 mph - N/A   Overcast
7:55 AM 51.3 °F 49.1 °F 92% 29.61 in 10.0 mi Calm Calm - N/A Rain Rain
8:15 AM 51.8 °F 49.8 °F 93% 29.61 in 10.0 mi NNW 3.5 mph - 0.01 in Rain Light Rain
8:35 AM 52.0 °F 50.0 °F 93% 29.61 in 10.0 mi NE 3.5 mph - 0.01 in   Overcast
8:55 AM 52.3 °F 50.2 °F 92% 29.61 in 10.0 mi NE 3.5 mph - 0.01 in   Overcast
9:15 AM 53.4 °F 50.2 °F 89% 29.62 in 10.0 mi Calm Calm - N/A   Overcast
9:35 AM 54.5 °F 49.1 °F 82% 29.62 in 10.0 mi SSW 5.8 mph - N/A   Overcast
9:55 AM 55.6 °F 49.3 °F 79% 29.62 in 10.0 mi West 9.2 mph - N/A   Overcast
10:15 AM 56.3 °F 49.3 °F 77% 29.62 in 10.0 mi WSW 6.9 mph 17.3 mph N/A   Overcast
10:35 AM 56.7 °F 49.5 °F 77% 29.63 in 10.0 mi WSW 5.8 mph 19.6 mph N/A   Overcast
10:55 AM 57.4 °F 50.7 °F 78% 29.63 in 10.0 mi Calm Calm - N/A   Overcast
11:15 AM 58.3 °F 49.6 °F 73% 29.64 in 10.0 mi Calm Calm - N/A   Overcast
11:35 AM 58.6 °F 49.5 °F 72% 29.65 in 10.0 mi West 5.8 mph - N/A   Overcast
11:55 AM 59.2 °F 49.8 °F 71% 29.65 in 10.0 mi WNW 10.4 mph 16.1 mph N/A   Overcast
12:15 PM 59.5 °F 49.8 °F 70% 29.66 in 10.0 mi West 4.6 mph 16.1 mph N/A   Overcast
12:35 PM 59.9 °F 50.0 °F 70% 29.67 in 10.0 mi WNW 4.6 mph - N/A   Overcast
12:55 PM 60.8 °F 50.0 °F 68% 29.67 in 10.0 mi WSW 10.4 mph 17.3 mph N/A   Overcast
1:15 PM 61.7 °F 50.5 °F 67% 29.67 in 10.0 mi West 6.9 mph - N/A   Overcast
1:35 PM 61.9 °F 50.4 °F 66% 29.67 in 10.0 mi West 5.8 mph - N/A   Overcast
1:55 PM 62.1 °F 49.6 °F 64% 29.68 in 10.0 mi West 11.5 mph 19.6 mph N/A   Overcast
2:15 PM 61.9 °F 50.4 °F 66% 29.69 in 10.0 mi West 4.6 mph - N/A   Overcast
2:35 PM 60.6 °F 51.3 °F 71% 29.70 in 10.0 mi West 6.9 mph - N/A Rain Light Rain
2:55 PM 60.6 °F 51.3 °F 71% 29.71 in 7.0 mi West 9.2 mph - N/A Rain Rain
3:15 PM 59.7 °F 52.5 °F 77% 29.72 in 7.0 mi West 4.6 mph - N/A   Overcast
3:35 PM 58.8 °F 53.1 °F 81% 29.73 in 7.0 mi WNW 4.6 mph - N/A   Light Drizzle
3:55 PM 59.4 °F 52.5 °F 78% 29.74 in 10.0 mi NW 4.6 mph - N/A   Overcast
4:15 PM 59.5 °F 52.0 °F 76% 29.75 in 10.0 mi West 3.5 mph - N/A   Overcast
4:35 PM 59.2 °F 52.2 °F 78% 29.76 in 10.0 mi West 3.5 mph - N/A   Overcast
4:55 PM 59.5 °F 51.1 °F 74% 29.77 in 10.0 mi West 5.8 mph - N/A   Overcast
5:15 PM 59.0 °F 51.8 °F 77% 29.78 in 10.0 mi WSW 4.6 mph - N/A   Overcast
5:35 PM 59.0 °F 51.8 °F 77% 29.79 in 10.0 mi WSW 5.8 mph - N/A   Overcast
6:15 PM 58.3 °F 52.2 °F 80% 29.82 in 10.0 mi Calm Calm - N/A   Overcast
6:35 PM 57.7 °F 52.7 °F 83% 29.82 in 10.0 mi NW 3.5 mph - N/A Rain Light Rain
6:55 PM 57.4 °F 52.3 °F 83% 29.83 in 10.0 mi WNW 3.5 mph - N/A   Overcast
7:15 PM 56.7 °F 53.1 °F 88% 29.83 in 10.0 mi Calm Calm - N/A   Overcast
7:35 PM 56.5 °F 53.1 °F 88% 29.84 in 10.0 mi Calm Calm - N/A   Overcast
7:55 PM 55.8 °F 53.6 °F 92% 29.84 in 10.0 mi Calm Calm - N/A   Overcast
8:15 PM 55.8 °F 53.6 °F 92% 29.86 in 10.0 mi Calm Calm - N/A   Overcast
8:35 PM 55.8 °F 53.6 °F 92% 29.86 in 10.0 mi Calm Calm - N/A   Overcast
8:55 PM 55.6 °F 53.8 °F 94% 29.86 in 10.0 mi WSW 3.5 mph - N/A   Overcast
9:15 PM 55.8 °F 53.6 °F 92% 29.87 in 10.0 mi West 3.5 mph - N/A   Overcast
9:55 PM 56.3 °F 52.9 °F 88% 29.88 in 10.0 mi WNW 4.6 mph - N/A   Overcast
10:15 PM 56.5 °F 52.7 °F 87% 29.87 in 10.0 mi WNW 4.6 mph - N/A   Overcast
10:35 PM 56.3 °F 52.2 °F 86% 29.88 in 10.0 mi West 4.6 mph - N/A   Mostly Cloudy
10:55 PM 56.7 °F 51.8 °F 84% 29.89 in 10.0 mi Calm Calm - N/A   Scattered Clouds
11:15 PM 54.1 °F 52.0 °F 92% 29.89 in 10.0 mi Calm Calm - N/A   Scattered Clouds
11:35 PM 53.6 °F 51.3 °F 92% 29.89 in 10.0 mi East 4.6 mph - N/A   Clear
11:55 PM 53.4 °F 51.1 °F 92% 29.90 in 10.0 mi Calm Calm - N/A   Clear